Regional Weather Roundup
Issued by NWS Jackson, KY

Home | Current Version | Previous Version | Text Only | Print | Product List | Glossary On
Versions: 1 2 3 4 5 6 7 8 9 10 11 12 13 14 15 16 17 18 19 20 21 22 23 24 25 26 27
000
ASUS43 KJKL 130410
RWRJKL

EAST KENTUCKY HOURLY WEATHER ROUNDUP
NATIONAL WEATHER SERVICE JACKSON KY
1100 PM EST TUE DEC 12 2017

NOTE: "FAIR" INDICATES FEW OR NO CLOUDS BELOW 12,000 FEET WITH
NO SIGNIFICANT WEATHER AND/OR OBSTRUCTIONS TO VISIBILITY.

* THESE REPORTS ARE NOT UNDER NWS QUALITY CONTROL AND MAY NOT
  REPORT WEATHER SUCH AS PRECIPITATION AND FOG.

KYZ079-080-083-085-087-088-110-112-115-119-120-130500
...EASTERN KENTUCKY...

CITY           SKY/WX    TMP DP  RH WIND       PRES   REMARKS
JACKSON        CLEAR     22   7  52 W8        29.98S WCI  12
LONDON         CLEAR     23   6  48 W5        30.03S WCI  17
SOMERSET*      CLEAR     25   9  50 W7        30.08S WCI  17
MONTICELLO*    CLEAR     25  12  58 NW9       30.09R WCI  15
WILLIAMSBURG*  CLEAR     25   7  46 W3        30.04S
MIDDLESBORO*   CLEAR     26   7  43 NW7       30.04R WCI  18
HARLAN APT*    CLEAR     27   3  36 SW7       29.99S WCI  19
PIKE CO APT*   MOCLDY    22   6  50 NW17      29.96R WCI   8
BIG SANDY APT* CLOUDY    23   7  48 NW3       29.98R
MOREHEAD APT*  PTCLDY    21   5  49 W6        30.02S WCI  14
$$

KYZ035-036-041-042-044-050-067-078-099-130500
...CENTRAL KENTUCKY...

CITY           SKY/WX    TMP DP  RH WIND       PRES   REMARKS
MT STERLING*   CLEAR     21  10  63 W6        30.03S WCI  14
FLEMING/MASON* CLEAR     18   8  63 W6        30.02R WCI  10
DANVILLE*      CLEAR     23   7  50 W5        30.05S WCI  17
LEXINGTON      CLEAR     20   7  57 W7        30.03S WCI  11
FRANKFORT      CLEAR     22   6  50 W5        30.03S WCI  16
LOUISVILLE     CLEAR     24   8  50 W8        30.07S WCI  15
LEBANON*         N/A     23   9  54 CALM      30.06S
GLASGOW*       CLEAR     22  13  69 CALM      30.09S
BOWLING GREEN  CLEAR     26  10  50 CALM      30.11S
$$

KYZ091>093-OHZ055-061-077-WVZ005-015-034-035-042-130500
...SOUTHERN OHIO/WEST VIRGINIA...

CITY           SKY/WX    TMP DP  RH WIND       PRES   REMARKS
COVINGTON      CLEAR     19  10  68 W5        30.00S WCI  12
COLUMBUS       SNOW      19  15  84 NW15      29.93S VSB 1/2 WCI   5
DAYTON         CLOUDY    19  10  68 W14       29.96F WCI   6
WILMINGTON     CLOUDY    19   9  65 W14       29.96S WCI   6
HUNTINGTON     CLOUDY    23  14  68 NW7       29.97S WCI  15
CHARLESTON     MOCLDY    22  12  65 W10G17    29.94R WCI  11
PINEVILLE*       N/A     23   9  55 MISG      29.92F
BECKLEY        LGT SNOW  16   8  71 NW17G26   29.79F WCI   0
BLUEFIELD      FLURRIES  16   7  67 NW16G25   29.77S WCI   1
LOGAN CO APT*  FLURRIES  21  16  79 VRB6      29.91R WCI  14
$$

VAZ002-007-008-TNZ017-027-036-066-071-130500
...SOUTHWEST VIRGINIA/EAST TENNESSEE...

CITY           SKY/WX    TMP DP  RH WIND       PRES   REMARKS
WISE*          PTCLDY    21   9  58 W15G22    29.88S WCI   8
JONESVILLE*      N/A     25   5  42 W8G21     30.02R WCI  16
ABINGDON*      CLOUDY    26   6  42 NW15G22   29.89R WCI  13
BRISTOL        CLEAR     26   6  42 W13       29.96R WCI  15
MORRISTOWN*    PTCLDY    27   5  39 NW10      30.01S WCI  17
SEVIERVILLE*   CLEAR     30   9  40 CALM      30.04S
KNOXVILLE      CLEAR     30  13  49 NW9       30.05R WCI  22
LAFOLLETTE*    CLEAR     28   7  40 CALM      30.07S
OAK RIDGE      CLEAR     30   9  41 VRB6      30.07S WCI  24
CROSSVILLE     CLEAR     24   7  48 NW8       30.02S WCI  15
NASHVILLE      CLEAR     31   8  38 NW3       30.13S
$$

...KEY TO REMARKS...
VSB - VISIBILITY IN MILES
WCI - WIND CHILL INDEX
HX  - HEAT INDEX

$$




USA.gov is the U.S. government's official web portal to all federal, state and local government web resources and services.